Weather in Kurortnoe

Russia / Republic of Crimea     44°59′46″N   34°21′44″E
temp.,
°C
wind,
m/s
gust,
m/s
humid.,
%
clouds,
%
prec.,
mm/h
press.,
hPa
HPBL,
m
4 august, wed
wed400:00+22se117599 0.0 101511
03:00+21nne227751 0.0 101647
06:00+20e238624 0.1 101666
09:00+25ne33591 0.1 1016679
12:00+29n334210 0.1 10161959
15:00+27ne554897 0.4 1016687
18:00+27ene434676 0.0 10161442
21:00+22ese35610 0.0 101799
5 august, thu
thu500:00+21se3259100 0.0 101726
03:00+20se225458 0.0 101619
06:00+19ese22540 0.0 101620
09:00+27ene34412 0.0 1015848
12:00+30ne32285 0.0 10142055
15:00+32ne422410 0.0 10132618
18:00+30ne443120 0.0 10121331
21:00+22se23610 0.0 101244
6 august, fri
fri600:00+21se22620 0.0 101119
03:00+20sse22620 0.0 101016
06:00+20se22530 0.0 100917
09:00+28e3435100 0.0 1007602
12:00+33se34240 0.0 10061973
15:00+35wsw33210 0.0 10042820
18:00+29w554121 0.0 1004679
21:00+23ssw35570 0.0 100589
7 august, sat
sat700:00+22ssw32573 0.0 100431
03:00+22ssw22636 0.0 100424
06:00+21ssw2370100 0.2 100537
09:00+26wnw2348100 0.2 1005460
12:00+31nw3335100 0.0 10051261
15:00+33wnw6528100 0.0 10052242
18:00+31nnw6629100 0.0 10061551
21:00+24wsw2256100 0.0 100823
8 august, sun
sun800:00+22ssw336512 0.0 101042
03:00+20sw337668 0.4 101143
06:00+20sw228481 0.0 101228
09:00+24wnw236942 0.0 1012533
12:00+29nw44441 0.0 10131759
15:00+31wnw553516 0.1 10132676
18:00+29wnw433939 0.0 10141731
21:00+21ssw22690 0.0 101724